Time,TemperatureF,DewpointF,PressureIn,WindDirection,WindDirectionDegrees,WindSpeedMPH,WindSpeedGustMPH,Humidity,HourlyPrecipIn,Conditions,Clouds,dailyrainin,SolarRadiationWatts/m^2,SoftwareType,DateUTC
2013-10-28 00:04:00,69.1,66.0,30.01,NE,41,1.0,1.0,91,0.00,,,0.01,0,weatherlink.com 1.10,2013-10-28 05:04:00,
2013-10-28 00:19:00,69.0,66.0,30.01,NNE,28,0.0,1.0,91,0.00,,,0.01,0,weatherlink.com 1.10,2013-10-28 05:19:00,
2013-10-28 00:34:00,68.8,66.0,30.01,NNE,28,0.0,1.0,91,0.00,,,0.01,0,weatherlink.com 1.10,2013-10-28 05:34:00,
2013-10-28 00:49:00,68.7,66.0,30.01,NNE,28,0.0,1.0,91,0.00,,,0.01,0,weatherlink.com 1.10,2013-10-28 05:49:00,
2013-10-28 01:04:00,68.8,66.0,30.00,NNE,28,0.0,1.0,91,0.00,,,0.01,0,weatherlink.com 1.10,2013-10-28 06:04:00,
2013-10-28 01:19:00,69.0,66.0,30.00,NNE,32,0.0,2.0,91,0.00,,,0.01,0,weatherlink.com 1.10,2013-10-28 06:19:00,
2013-10-28 01:34:00,68.8,66.0,30.00,NNE,20,1.0,1.0,91,0.00,,,0.01,0,weatherlink.com 1.10,2013-10-28 06:34:00,
2013-10-28 01:49:00,68.6,66.0,30.00,NNE,20,1.0,2.0,91,0.00,,,0.01,0,weatherlink.com 1.10,2013-10-28 06:49:00,
2013-10-28 02:04:00,68.3,66.0,30.00,NNE,23,1.0,2.0,92,0.00,,,0.01,0,weatherlink.com 1.10,2013-10-28 07:04:00,
2013-10-28 02:19:00,68.3,66.0,30.00,ENE,69,0.0,2.0,92,0.00,,,0.01,0,weatherlink.com 1.10,2013-10-28 07:19:00,
2013-10-28 02:34:00,68.1,65.0,30.00,NE,39,0.0,1.0,91,0.00,,,0.01,0,weatherlink.com 1.10,2013-10-28 07:34:00,
2013-10-28 02:49:00,68.1,66.0,30.00,NE,34,1.0,2.0,92,0.00,,,0.01,0,weatherlink.com 1.10,2013-10-28 07:49:00,
2013-10-28 03:04:00,68.2,66.0,30.00,NE,50,0.0,2.0,93,0.00,,,0.01,0,weatherlink.com 1.10,2013-10-28 08:04:00,
2013-10-28 03:19:00,68.4,66.0,30.00,NE,38,2.0,3.0,93,0.00,,,0.01,0,weatherlink.com 1.10,2013-10-28 08:19:00,
2013-10-28 03:34:00,68.5,67.0,29.99,ENE,58,1.0,3.0,94,0.00,,,0.01,0,weatherlink.com 1.10,2013-10-28 08:34:00,
2013-10-28 03:49:00,68.3,67.0,29.99,NE,34,0.0,3.0,94,0.00,,,0.01,0,weatherlink.com 1.10,2013-10-28 08:49:00,
2013-10-28 04:04:00,68.1,66.0,29.99,NE,37,1.0,2.0,94,0.00,,,0.01,0,weatherlink.com 1.10,2013-10-28 09:04:00,
2013-10-28 04:19:00,67.9,66.0,30.00,NE,34,0.0,2.0,94,0.00,,,0.01,0,weatherlink.com 1.10,2013-10-28 09:19:00,
2013-10-28 04:34:00,67.9,66.0,30.00,NNE,23,2.0,2.0,94,0.00,,,0.01,0,weatherlink.com 1.10,2013-10-28 09:34:00,
2013-10-28 04:49:00,67.9,67.0,30.00,NNE,29,2.0,3.0,95,0.00,,,0.01,0,weatherlink.com 1.10,2013-10-28 09:49:00,
2013-10-28 05:04:00,67.8,66.0,30.00,NNE,30,0.0,2.0,95,0.00,,,0.01,0,weatherlink.com 1.10,2013-10-28 10:04:00,
2013-10-28 05:19:00,67.7,66.0,30.00,NE,48,1.0,3.0,95,0.00,,,0.01,0,weatherlink.com 1.10,2013-10-28 10:19:00,
2013-10-28 05:34:00,67.7,66.0,30.00,NE,54,0.0,3.0,95,0.00,,,0.01,0,weatherlink.com 1.10,2013-10-28 10:34:00,
2013-10-28 05:49:00,67.9,67.0,30.01,NNE,30,0.0,2.0,95,0.00,,,0.01,0,weatherlink.com 1.10,2013-10-28 10:49:00,
2013-10-28 06:04:00,68.0,67.0,30.01,NE,36,1.0,2.0,96,0.00,,,0.01,0,weatherlink.com 1.10,2013-10-28 11:04:00,
2013-10-28 06:19:00,68.0,67.0,30.01,NNE,28,2.0,2.0,95,0.00,,,0.01,0,weatherlink.com 1.10,2013-10-28 11:19:00,
2013-10-28 06:34:00,68.0,67.0,30.02,NE,39,1.0,2.0,95,0.00,,,0.01,0,weatherlink.com 1.10,2013-10-28 11:34:00,
2013-10-28 06:49:00,68.3,67.0,30.02,NNE,33,0.0,2.0,95,0.00,,,0.01,0,weatherlink.com 1.10,2013-10-28 11:49:00,
2013-10-28 07:04:00,68.7,67.0,30.02,NNE,23,1.0,2.0,95,0.00,,,0.01,0,weatherlink.com 1.10,2013-10-28 12:04:00,
2013-10-28 07:19:00,69.2,68.0,30.02,ENE,57,2.0,2.0,95,0.00,,,0.01,0,weatherlink.com 1.10,2013-10-28 12:19:00,
2013-10-28 07:34:00,69.7,68.0,30.03,NE,40,2.0,2.0,95,0.00,,,0.01,5,weatherlink.com 1.10,2013-10-28 12:34:00,
2013-10-28 07:49:00,69.8,68.0,30.04,NNE,23,1.0,3.0,95,0.00,,,0.01,16,weatherlink.com 1.10,2013-10-28 12:49:00,
2013-10-28 08:04:00,69.7,68.0,30.04,NE,43,1.0,2.0,95,0.00,,,0.01,25,weatherlink.com 1.10,2013-10-28 13:04:00,
2013-10-28 08:19:00,70.8,70.0,30.04,NE,39,1.0,3.0,96,0.00,,,0.01,35,weatherlink.com 1.10,2013-10-28 13:19:00,
2013-10-28 08:34:00,71.8,71.0,30.05,NNE,21,1.0,3.0,96,0.00,,,0.01,40,weatherlink.com 1.10,2013-10-28 13:34:00,
2013-10-28 08:49:00,72.7,71.0,30.05,NE,45,3.0,3.0,95,0.00,,,0.01,47,weatherlink.com 1.10,2013-10-28 13:49:00,
2013-10-28 09:04:00,73.5,72.0,30.06,NE,47,1.0,5.0,94,0.00,,,0.01,56,weatherlink.com 1.10,2013-10-28 14:04:00,
2013-10-28 09:19:00,74.3,72.0,30.07,NE,52,2.0,6.0,92,0.00,,,0.01,287,weatherlink.com 1.10,2013-10-28 14:19:00,
2013-10-28 09:35:00,75.4,72.0,30.07,ENE,70,2.0,6.0,90,0.00,,,0.01,360,weatherlink.com 1.10,2013-10-28 14:35:00,
2013-10-28 09:50:00,75.8,72.0,30.08,NE,53,3.0,4.0,89,0.00,,,0.01,413,weatherlink.com 1.10,2013-10-28 14:50:00,
2013-10-28 10:05:00,76.8,73.0,30.08,ENE,63,1.0,5.0,88,0.00,,,0.01,485,weatherlink.com 1.10,2013-10-28 15:05:00,
2013-10-28 10:20:00,77.7,73.0,30.08,North,354,3.0,6.0,86,0.00,,,0.01,510,weatherlink.com 1.10,2013-10-28 15:20:00,
2013-10-28 10:35:00,77.9,73.0,30.08,NE,35,2.0,6.0,85,0.00,,,0.01,529,weatherlink.com 1.10,2013-10-28 15:35:00,
2013-10-28 10:50:00,78.7,74.0,30.09,ENE,77,2.0,5.0,85,0.00,,,0.01,591,weatherlink.com 1.10,2013-10-28 15:50:00,
2013-10-28 11:05:00,79.2,74.0,30.09,SSE,162,2.0,5.0,83,0.00,,,0.01,626,weatherlink.com 1.10,2013-10-28 16:05:00,
2013-10-28 11:20:00,79.3,74.0,30.08,ESE,111,4.0,4.0,83,0.00,,,0.01,647,weatherlink.com 1.10,2013-10-28 16:20:00,
2013-10-28 11:35:00,80.5,74.0,30.09,East,83,0.0,4.0,81,0.00,,,0.01,768,weatherlink.com 1.10,2013-10-28 16:35:00,
2013-10-28 11:50:00,80.4,74.0,30.08,ENE,61,1.0,5.0,80,0.00,,,0.01,775,weatherlink.com 1.10,2013-10-28 16:50:00,
2013-10-28 12:05:00,81.0,74.0,30.08,ENE,70,2.0,5.0,79,0.00,,,0.01,826,weatherlink.com 1.10,2013-10-28 17:05:00,
2013-10-28 12:20:00,80.2,74.0,30.08,ESE,104,1.0,6.0,81,0.00,,,0.01,914,weatherlink.com 1.10,2013-10-28 17:20:00,
2013-10-28 12:35:00,81.2,75.0,30.07,East,94,0.0,5.0,80,0.00,,,0.01,860,weatherlink.com 1.10,2013-10-28 17:35:00,
2013-10-28 12:50:00,82.3,74.0,30.07,North,11,2.0,4.0,77,0.00,,,0.01,912,weatherlink.com 1.10,2013-10-28 17:50:00,
2013-10-28 13:05:00,81.9,74.0,30.07,ESE,114,1.0,4.0,76,0.00,,,0.00,512,weatherlink.com 1.10,2013-10-28 18:05:00,
2013-10-28 13:20:00,81.8,73.0,30.06,SSW,193,1.0,6.0,75,0.00,,,0.00,793,weatherlink.com 1.10,2013-10-28 18:20:00,
2013-10-28 13:35:00,82.1,74.0,30.05,NE,54,1.0,6.0,76,0.00,,,0.00,795,weatherlink.com 1.10,2013-10-28 18:35:00,
2013-10-28 13:50:00,82.2,73.0,30.05,NW,304,1.0,8.0,73,0.01,,,0.01,638,weatherlink.com 1.10,2013-10-28 18:50:00,
2013-10-28 14:05:00,82.2,73.0,30.04,South,180,2.0,8.0,74,0.01,,,0.01,752,weatherlink.com 1.10,2013-10-28 19:05:00,
2013-10-28 14:20:00,82.0,73.0,30.04,SE,127,3.0,11.0,75,0.01,,,0.01,712,weatherlink.com 1.10,2013-10-28 19:20:00,
2013-10-28 14:35:00,81.8,73.0,30.03,East,100,1.0,10.0,75,0.01,,,0.01,652,weatherlink.com 1.10,2013-10-28 19:35:00,
2013-10-28 14:50:00,81.7,72.0,30.04,South,190,3.0,11.0,73,0.00,,,0.01,659,weatherlink.com 1.10,2013-10-28 19:50:00,
2013-10-28 15:05:00,81.6,72.0,30.03,SE,136,7.0,8.0,73,0.00,,,0.01,643,weatherlink.com 1.10,2013-10-28 20:05:00,
2013-10-28 15:20:00,82.0,72.0,30.03,ESE,122,1.0,11.0,71,0.00,,,0.01,605,weatherlink.com 1.10,2013-10-28 20:20:00,
2013-10-28 15:35:00,82.0,72.0,30.03,ESE,121,3.0,8.0,71,0.00,,,0.01,568,weatherlink.com 1.10,2013-10-28 20:35:00,
2013-10-28 15:50:00,81.8,72.0,30.03,SSE,160,6.0,9.0,72,0.00,,,0.01,520,weatherlink.com 1.10,2013-10-28 20:50:00,
2013-10-28 16:05:00,81.4,72.0,30.03,ESE,116,2.0,11.0,73,0.00,,,0.01,478,weatherlink.com 1.10,2013-10-28 21:05:00,
2013-10-28 16:20:00,81.2,72.0,30.03,SSE,156,6.0,10.0,74,0.00,,,0.01,431,weatherlink.com 1.10,2013-10-28 21:20:00,
2013-10-28 16:35:00,81.2,72.0,30.03,SE,145,5.0,9.0,73,0.00,,,0.01,383,weatherlink.com 1.10,2013-10-28 21:35:00,
2013-10-28 16:50:00,81.2,72.0,30.03,ESE,114,1.0,9.0,74,0.00,,,0.01,336,weatherlink.com 1.10,2013-10-28 21:50:00,
2013-10-28 17:05:00,81.1,72.0,30.03,SSE,155,2.0,8.0,74,0.00,,,0.01,279,weatherlink.com 1.10,2013-10-28 22:05:00,
2013-10-28 17:21:00,80.5,72.0,30.03,SSE,155,7.0,10.0,74,0.00,,,0.01,221,weatherlink.com 1.10,2013-10-28 22:21:00,
2013-10-28 17:36:00,80.4,72.0,30.03,SE,140,1.0,9.0,75,0.00,,,0.01,158,weatherlink.com 1.10,2013-10-28 22:36:00,
2013-10-28 17:51:00,79.6,72.0,30.03,East,97,2.0,9.0,77,0.00,,,0.01,98,weatherlink.com 1.10,2013-10-28 22:51:00,
2013-10-28 18:06:00,78.9,72.0,30.03,SE,129,2.0,8.0,78,0.00,,,0.01,49,weatherlink.com 1.10,2013-10-28 23:06:00,
2013-10-28 18:21:00,78.1,71.0,30.03,SE,146,4.0,11.0,79,0.00,,,0.01,19,weatherlink.com 1.10,2013-10-28 23:21:00,
2013-10-28 18:36:00,77.3,71.0,30.04,SSE,152,5.0,8.0,81,0.00,,,0.01,0,weatherlink.com 1.10,2013-10-28 23:36:00,
2013-10-28 18:51:00,76.7,71.0,30.04,SE,127,1.0,8.0,82,0.00,,,0.01,0,weatherlink.com 1.10,2013-10-28 23:51:00,
2013-10-28 19:06:00,76.5,71.0,30.04,SSW,208,1.0,7.0,83,0.00,,,0.01,0,weatherlink.com 1.10,2013-10-29 00:06:00,
2013-10-28 19:21:00,76.3,71.0,30.04,South,182,2.0,7.0,83,0.00,,,0.01,0,weatherlink.com 1.10,2013-10-29 00:21:00,
2013-10-28 19:36:00,76.2,71.0,30.05,SE,133,1.0,8.0,84,0.00,,,0.01,0,weatherlink.com 1.10,2013-10-29 00:36:00,
2013-10-28 19:51:00,76.1,71.0,30.05,ESE,112,2.0,7.0,84,0.00,,,0.01,0,weatherlink.com 1.10,2013-10-29 00:51:00,
2013-10-28 20:06:00,76.0,71.0,30.05,ENE,66,2.0,7.0,84,0.00,,,0.01,0,weatherlink.com 1.10,2013-10-29 01:06:00,
2013-10-28 20:21:00,76.0,71.0,30.05,North,4,2.0,5.0,83,0.00,,,0.01,0,weatherlink.com 1.10,2013-10-29 01:21:00,
2013-10-28 20:36:00,76.0,71.0,30.06,East,87,3.0,8.0,84,0.00,,,0.01,0,weatherlink.com 1.10,2013-10-29 01:36:00,
2013-10-28 20:51:00,76.0,71.0,30.06,ESE,108,3.0,8.0,83,0.00,,,0.01,0,weatherlink.com 1.10,2013-10-29 01:51:00,
2013-10-28 21:06:00,75.9,71.0,30.06,ENE,65,1.0,10.0,84,0.00,,,0.01,0,weatherlink.com 1.10,2013-10-29 02:06:00,
2013-10-28 21:21:00,75.8,71.0,30.06,ESE,114,3.0,7.0,85,0.00,,,0.01,0,weatherlink.com 1.10,2013-10-29 02:21:00,
2013-10-28 21:36:00,75.8,71.0,30.06,ESE,118,4.0,11.0,85,0.00,,,0.01,0,weatherlink.com 1.10,2013-10-29 02:36:00,
2013-10-28 21:51:00,75.8,71.0,30.07,ESE,116,2.0,8.0,84,0.00,,,0.01,0,weatherlink.com 1.10,2013-10-29 02:51:00,
2013-10-28 22:06:00,75.8,71.0,30.07,SE,125,3.0,8.0,84,0.00,,,0.01,0,weatherlink.com 1.10,2013-10-29 03:06:00,
2013-10-28 22:21:00,75.9,70.0,30.07,SE,140,2.0,8.0,83,0.00,,,0.01,0,weatherlink.com 1.10,2013-10-29 03:21:00,
2013-10-28 22:36:00,76.1,71.0,30.07,South,173,2.0,7.0,83,0.00,,,0.01,0,weatherlink.com 1.10,2013-10-29 03:36:00,
2013-10-28 22:51:00,76.1,71.0,30.07,SSE,156,6.0,8.0,84,0.00,,,0.01,0,weatherlink.com 1.10,2013-10-29 03:51:00,
2013-10-28 23:21:00,75.9,71.0,30.07,ESE,108,3.0,9.0,84,0.00,,,0.01,0,weatherlink.com 1.10,2013-10-29 04:21:00,
2013-10-28 23:36:00,75.8,71.0,30.07,South,174,2.0,9.0,84,0.01,,,0.02,0,weatherlink.com 1.10,2013-10-29 04:36:00,
2013-10-28 23:51:00,75.8,71.0,30.07,ESE,106,7.0,8.0,84,0.01,,,0.02,0,weatherlink.com 1.10,2013-10-29 04:51:00,